Orbital Elements at Epoch 2459200.5 (2020-Dec-17.0) TDB
Reference: JPL 20 (heliocentric ecliptic J2000)
Element | Value | Uncertainty (1-sigma) | Units |
e | .1257783122822573 | 6.2634e-08 | |
a | 2.763771900695446 | 2.3307e-08 | au |
q | 2.416149335492846 | 1.7437e-07 | au |
i | 4.085222232484155 | 6.3224e-06 | deg |
node | 225.5220354820119 | 7.9948e-05 | deg |
peri | 163.7142711741205 | 8.2838e-05 | deg |
M | 208.9696434051566 | 2.5484e-05 | deg |
tp | 2459904.566157448443 (2022-Nov-21.06615745) | 0.00012447 | TDB |
period | 1678.230935793827 4.59 | 2.1229e-05 5.812e-08 | d yr |
n | .214511598089279 | 2.7134e-09 | deg/d |
Q | 3.111394465898046 | 2.6238e-08 | au |
|
| | Orbit Determination Parameters
Additional Information
|